Flag for United Kingdom Weather past 2 weeks in St. Peter Port, Guernsey, United Kingdom

Now
61 °F

Clear.


Feels Like: 61 °F
Forecast: 60 / 68 °F
Wind: 8 mph from Northwest

Location: Cherbourg / Maupertus

Current Time: Jul 30, 2014 at 2:34:14 AM

Latest Report: Jul 30, 2014 at 2:00 AM


Visibility: N/A

Pressure: 30.01 "Hg

Humidity: 94%

Dew point: 59 °F

Location of St. Peter PortLocation

Historic Weather in St. Peter Port — Graph

°F

St. Peter Port temperature yesterday

Maximum temperature yesterday: 70 °F (at 4:00 PM)
Minimum temperature yesterday: 59 °F (at 12:00 AM)
Average temperature yesterday: 64 °F

Past Weeks' High & Low Weather Summary

 TemperatureHumidityPressure
High77 °F (Jul 24, 2:00 PM)100% (Jul 15, 8:30 AM)30.21 "Hg (Jul 15, 8:30 AM)
Low52 °F (Jul 16, 4:30 AM)50% (Jul 22, 3:30 PM)29.74 "Hg (Jul 19, 5:30 AM)
Average65 °F81%30.03 "Hg
* Reported Jul 15 1:00 AM — Jul 30 1:30 AM, St. Peter Port, Weather by CustomWeather, © 2014

Note: Actual official high and low records may vary slightly from our data, if they occured in-between our weather recording intervals... More about our weather records

Advertising

St. Peter Port weather history for previous 24 hours

 ConditionsComfort  
Time TempWeatherWind HumidityBarometerVisibility
1:30 AM
Jul 30
61 °FClear.8 mph94%30.01 "HgN/A
1:00 AM63 °FClear.8 mph88%30.01 "HgN/A
12:30 AM63 °FClear.9 mph88%30.04 "HgN/A
12:00 AM61 °FClear.10 mph94%30.04 "HgN/A
11:30 PM
Jul 29
63 °FClear.9 mph88%30.04 "HgN/A
11:00 PM63 °FClear.8 mph83%30.04 "HgN/A
10:30 PM63 °FClear.8 mph83%30.04 "HgN/A
10:00 PM63 °FClear.10 mph77%30.04 "HgN/A
9:30 PM63 °FClear.12 mph77%30.04 "HgN/A
9:00 PM63 °FClear.10 mph77%30.01 "HgN/A
8:30 PM64 °FClear.8 mph78%30.01 "HgN/A
8:00 PM66 °FClear.10 mph73%30.01 "HgN/A
7:30 PM68 °FClear.12 mph64%30.01 "HgN/A
7:00 PM68 °FClear.13 mph64%30.01 "HgN/A
6:30 PM68 °FClear.13 mph64%30.01 "HgN/A
6:00 PM68 °FClear.13 mph64%30.01 "HgN/A
5:30 PM68 °FClear.13 mph64%30.04 "HgN/A
5:00 PM70 °FClear.12 mph60%30.04 "HgN/A
4:30 PM70 °FClear.13 mph60%30.04 "HgN/A
4:00 PM70 °FClear.10 mph64%30.04 "HgN/A
3:30 PM68 °FClear.9 mph73%30.04 "HgN/A
3:00 PM68 °FClear.12 mph69%30.04 "HgN/A
2:30 PM68 °FClear.9 mph73%30.04 "HgN/A
2:00 PM68 °FClear.9 mph73%30.07 "HgN/A
1:30 PM68 °FClear.8 mph73%30.07 "HgN/A
1:00 PM66 °FClear.9 mph73%30.07 "HgN/A
12:30 PM66 °FClear.8 mph73%30.07 "HgN/A
12:00 PM66 °FClear.9 mph78%30.07 "HgN/A
11:30 AM66 °FClear.12 mph73%30.07 "HgN/A
11:00 AM64 °FClear.10 mph83%30.07 "HgN/A
10:30 AM68 °FClear.9 mph69%30.04 "HgN/A
10:00 AM66 °FClear.12 mph68%30.04 "HgN/A
9:30 AM64 °FClear.9 mph78%30.04 "HgN/A
9:00 AM63 °FClear.10 mph83%30.04 "HgN/A
8:30 AM63 °FClear.9 mph83%30.04 "HgN/A
8:00 AM63 °FClear.7 mph83%30.04 "HgN/A
7:30 AM63 °FClear.8 mph83%30.04 "HgN/A
7:00 AM63 °FClear.7 mph83%30.04 "HgN/A
6:30 AM63 °FClear.7 mph83%30.04 "HgN/A
6:00 AM63 °FClear.9 mph83%30.04 "HgN/A
5:30 AM63 °FClear.9 mph83%30.01 "HgN/A
5:00 AM63 °FClear.8 mph83%30.04 "HgN/A
4:30 AM61 °FClear.7 mph94%30.01 "HgN/A
4:00 AM61 °FPassing clouds.5 mph94%30.01 "HgN/A
3:30 AM61 °FPassing clouds.6 mph88%30.01 "HgN/A
3:00 AM61 °FClear.3 mph88%30.01 "HgN/A
2:30 AM61 °FMostly cloudy.3 mph94%30.04 "HgN/A
2:00 AM59 °FClear.3 mph94%30.04 "HgN/A
Weather by CustomWeather, © 2014

See weather overviewHow to use our weather pages